Weather History for KMSS - February, 2014

Change the Weather History Date:

Thursday, February 13, 2014

  Actual Average Record
Temperature  
Mean Temperature 6 °F 17 °F  
Max Temperature 21 °F 28 °F 53 °F (1990)
Min Temperature -9 °F 7 °F -33 °F (1967)
Degree Days  
Heating Degree Days 59 48  
Month to date heating degree days 688 638  
Since 1 July heating degree days 5470 5301  
Cooling Degree Days 0 0  
Month to date cooling degree days 0  
Year to date cooling degree days 0  
Moisture  
Dew Point 4 °F    
Average Humidity 70    
Maximum Humidity 84    
Minimum Humidity 56    
Precipitation  
Precipitation T in 0.06 in 1.21 in (1971)
Month to date precipitation 0.47 0.77  
Year to date precipitation 1.93 2.95  
Sea Level Pressure  
Sea Level Pressure 29.92 in    
Wind  
Wind Speed 9 mph (NE)    
Max Wind Speed 23 mph    
Max Gust Speed 29 mph    
Visibility 7 miles    
Events Snow    
T = Trace of Precipitation, MM = Missing Value Source: NWS Daily Summary

Daily Weather History Graph

Daily Weather History Graph

Search for Another Location

Airport or City:

Trip Planner

Search our weather history database for the weather conditions in past years. The results will help you decide how hot, cold, wet, or windy it might be!

Date:

Astronomy

Feb. 13, 2014 Rise Set
Actual Time 7:03 AM EST 5:24 PM EST
Civil Twilight 6:32 AM EST 5:54 PM EST
Nautical Twilight 5:58 AM EST 6:29 PM EST
Astronomical Twilight 5:24 AM EST 7:03 PM EST
Moon 4:30 PM EST (2/13) 5:55 AM EST (2/13)
Length of Visible Light 11h 22m
Length of Day
10h 21m
Waxing Gibbous, 98% of the Moon is Illuminated
Feb 13
Waxing Gibbous
Feb 14
Full
Feb 22
Last Quarter
Mar 1
New
Mar 8
First Quarter

Hourly Weather History & Observations

Time (EST) Temp. Windchill Dew Point Humidity Pressure Visibility Wind Dir Wind Speed Gust Speed Precip Events Conditions
12:53 AM -4.0 °F - -9.9 °F 76% 30.26 in 10.0 mi Calm Calm - N/A   Clear
1:53 AM -6.0 °F - -11.9 °F 75% 30.24 in 10.0 mi Calm Calm - N/A   Clear
2:53 AM -8.0 °F - -14.1 °F 75% 30.25 in 10.0 mi Calm Calm - N/A   Clear
3:53 AM -7.1 °F - -11.9 °F 79% 30.24 in 10.0 mi Calm Calm - N/A   Clear
4:53 AM -7.1 °F - -13.0 °F 75% 30.24 in 10.0 mi Calm Calm - N/A   Clear
5:53 AM -8.0 °F - -14.1 °F 75% 30.25 in 10.0 mi Calm Calm - N/A   Clear
6:53 AM -7.1 °F - -11.9 °F 79% 30.23 in 10.0 mi Calm Calm - N/A   Clear
7:53 AM -7.1 °F - -11.0 °F 83% 30.23 in 8.0 mi Calm Calm - N/A   Clear
8:53 AM -0.0 °F - -5.1 °F 79% 30.20 in 7.0 mi Calm Calm - N/A   Clear
9:53 AM 6.1 °F -5.6 °F -2.0 °F 69% 30.17 in 9.0 mi ENE 6.9 mph - N/A   Clear
10:53 AM 12.0 °F -1.3 °F -0.0 °F 59% 30.16 in 10.0 mi NNE 10.4 mph - N/A   Clear
11:53 AM 16.0 °F 4.4 °F 3.9 °F 59% 30.11 in 10.0 mi NNE 9.2 mph - N/A   Overcast
12:53 PM 19.0 °F 7.5 °F 6.1 °F 57% 30.06 in 10.0 mi NNE 10.4 mph - N/A   Mostly Cloudy
1:53 PM 21.0 °F 8.1 °F 9.0 °F 60% 30.01 in 10.0 mi NE 13.8 mph - N/A   Clear
2:53 PM 21.0 °F 8.1 °F 9.0 °F 60% 29.97 in 10.0 mi NE 13.8 mph - N/A   Clear
3:53 PM 21.0 °F 8.1 °F 10.9 °F 65% 29.93 in 10.0 mi NE 13.8 mph - N/A   Overcast
4:53 PM 19.9 °F 4.8 °F 10.9 °F 68% 29.88 in 10.0 mi NE 18.4 mph - N/A   Clear
5:53 PM 19.9 °F 4.3 °F 9.0 °F 62% 29.83 in 10.0 mi ENE 19.6 mph - N/A   Overcast
6:53 PM 19.9 °F 3.9 °F 10.0 °F 65% 29.81 in 10.0 mi ENE 20.7 mph 25.3 mph N/A   Overcast
7:32 PM 19.0 °F 5.6 °F 10.9 °F 71% 29.75 in 1.8 mi NE 13.8 mph - 0.00 in Snow Light Snow
7:42 PM 19.0 °F 6.1 °F 10.9 °F 71% 29.74 in 1.8 mi NE 12.7 mph - 0.00 in Snow Light Snow
7:53 PM 19.0 °F 4.5 °F 12.0 °F 74% 29.76 in 2.0 mi NE 16.1 mph - 0.00 in Snow Light Snow
8:03 PM 18.0 °F 4.2 °F 12.0 °F 78% 29.72 in 1.8 mi NE 13.8 mph - 0.00 in Snow Light Snow
8:33 PM 18.0 °F 4.2 °F 12.9 °F 81% 29.70 in 2.0 mi NE 13.8 mph - 0.00 in Snow Light Snow
8:53 PM 18.0 °F 4.8 °F 12.9 °F 81% 29.71 in 2.0 mi NE 12.7 mph - 0.00 in Snow Light Snow
9:14 PM 18.0 °F 4.2 °F 12.9 °F 81% 29.66 in 3.0 mi NE 13.8 mph - 0.00 in Snow Light Snow
9:48 PM 17.6 °F 3.7 °F 14.0 °F 86% 29.63 in 4.0 mi NE 13.8 mph - 0.00 in Snow Light Snow
9:53 PM 18.0 °F 4.8 °F 14.0 °F 84% 29.65 in 4.0 mi NE 12.7 mph - 0.00 in Snow Light Snow
10:53 PM 19.9 °F 7.9 °F 14.0 °F 78% 29.58 in 3.0 mi NE 11.5 mph - 0.00 in Snow Light Snow
11:30 PM 19.9 °F 7.3 °F 14.0 °F 78% 29.53 in 2.5 mi NE 12.7 mph - 0.00 in Snow Light Snow
11:40 PM 19.9 °F 6.7 °F 14.0 °F 78% 29.52 in 1.5 mi NE 13.8 mph - 0.00 in Snow Light Snow
11:53 PM 19.9 °F 6.7 °F 15.1 °F 81% 29.53 in 1.2 mi NE 13.8 mph - 0.00 in Snow Light Snow